Time,TemperatureF,DewpointF,PressureIn,WindDirection,WindDirectionDegrees,WindSpeedMPH,WindSpeedGustMPH,Humidity,HourlyPrecipIn,Conditions,Clouds,dailyrainin,SoftwareType,DateUTC
2013-02-06 00:00:00,29.4,28.1,29.91,NNW,343,0.0,0.0,95,0.00,,,0.00,Wunderground v.1.15,2013-02-06 05:00:00,
2013-02-06 00:03:00,29.5,28.2,29.91,NNW,343,0.0,0.0,95,0.00,,,0.00,Wunderground v.1.15,2013-02-06 05:03:00,
2013-02-06 00:06:00,29.5,28.0,29.91,NNW,343,0.0,0.0,94,0.00,,,0.00,Wunderground v.1.15,2013-02-06 05:06:00,
2013-02-06 00:08:00,29.5,28.0,29.91,NNW,343,0.0,0.0,94,0.00,,,0.00,Wunderground v.1.15,2013-02-06 05:08:00,
2013-02-06 00:14:00,29.6,28.1,29.91,NNW,343,0.0,0.0,94,0.00,,,0.00,Wunderground v.1.15,2013-02-06 05:14:00,
2013-02-06 00:19:00,29.6,28.3,29.91,NNW,343,0.0,0.0,95,0.00,,,0.00,Wunderground v.1.15,2013-02-06 05:19:00,
2013-02-06 00:25:00,29.6,28.1,29.91,NNW,343,0.0,0.0,94,0.00,,,0.00,Wunderground v.1.15,2013-02-06 05:25:00,
2013-02-06 00:30:00,29.7,28.2,29.91,NNW,343,0.0,0.0,94,0.00,,,0.00,Wunderground v.1.15,2013-02-06 05:30:00,
2013-02-06 00:36:00,29.7,28.2,29.91,NNW,346,0.0,0.0,94,0.00,,,0.00,Wunderground v.1.15,2013-02-06 05:36:00,
2013-02-06 00:42:00,29.8,28.5,29.90,NNW,347,0.0,0.0,95,0.00,,,0.00,Wunderground v.1.15,2013-02-06 05:42:00,
2013-02-06 00:47:00,29.8,28.3,29.90,NNW,347,0.0,0.0,94,0.00,,,0.00,Wunderground v.1.15,2013-02-06 05:47:00,
2013-02-06 00:53:00,29.9,28.4,29.91,NNW,347,0.0,0.0,94,0.00,,,0.00,Wunderground v.1.15,2013-02-06 05:53:00,
2013-02-06 00:59:00,29.9,28.4,29.91,NNW,347,0.0,0.0,94,0.00,,,0.00,Wunderground v.1.15,2013-02-06 05:59:00,
2013-02-06 01:04:00,29.9,28.4,29.91,NNW,347,0.0,0.0,94,0.00,,,0.00,Wunderground v.1.15,2013-02-06 06:04:00,
2013-02-06 01:09:00,30.0,28.5,29.91,NNW,347,0.0,0.0,94,0.00,,,0.00,Wunderground v.1.15,2013-02-06 06:09:00,
2013-02-06 01:15:00,30.0,28.7,29.91,NNW,347,0.0,0.0,95,0.00,,,0.00,Wunderground v.1.15,2013-02-06 06:15:00,
2013-02-06 01:21:00,30.1,28.8,29.91,NNW,347,0.0,0.0,95,0.00,,,0.00,Wunderground v.1.15,2013-02-06 06:21:00,
2013-02-06 01:26:00,30.1,28.8,29.91,NNW,342,0.0,1.0,95,0.00,,,0.00,Wunderground v.1.15,2013-02-06 06:26:00,
2013-02-06 01:32:00,30.2,28.9,29.91,NNW,344,0.0,0.0,95,0.00,,,0.00,Wunderground v.1.15,2013-02-06 06:32:00,
2013-02-06 01:37:00,30.2,28.9,29.91,NNW,344,0.0,0.0,95,0.00,,,0.00,Wunderground v.1.15,2013-02-06 06:37:00,
2013-02-06 01:42:00,30.3,29.0,29.91,NNW,344,0.0,0.0,95,0.00,,,0.00,Wunderground v.1.15,2013-02-06 06:42:00,
2013-02-06 01:48:00,30.3,29.0,29.91,NNW,344,0.0,0.0,95,0.00,,,0.00,Wunderground v.1.15,2013-02-06 06:48:00,
2013-02-06 01:53:00,30.4,29.1,29.91,NNW,344,0.0,0.0,95,0.00,,,0.00,Wunderground v.1.15,2013-02-06 06:53:00,
2013-02-06 01:59:00,30.4,29.1,29.91,North,355,0.0,0.0,95,0.00,,,0.00,Wunderground v.1.15,2013-02-06 06:59:00,
2013-02-06 02:04:00,30.5,29.2,29.91,NNW,342,0.0,2.0,95,0.00,,,0.00,Wunderground v.1.15,2013-02-06 07:04:00,
2013-02-06 02:10:00,30.5,29.2,29.91,North,355,0.0,0.0,95,0.00,,,0.00,Wunderground v.1.15,2013-02-06 07:10:00,
2013-02-06 02:15:00,30.4,29.1,29.91,North,355,0.0,1.0,95,0.00,,,0.00,Wunderground v.1.15,2013-02-06 07:15:00,
2013-02-06 02:21:00,30.4,29.1,29.91,NNE,12,0.0,0.0,95,0.00,,,0.00,Wunderground v.1.15,2013-02-06 07:21:00,
2013-02-06 02:26:00,30.4,29.1,29.91,NNE,12,0.0,0.0,95,0.00,,,0.00,Wunderground v.1.15,2013-02-06 07:26:00,
2013-02-06 02:32:00,30.3,29.0,29.91,NNE,12,0.0,0.0,95,0.00,,,0.00,Wunderground v.1.15,2013-02-06 07:32:00,
2013-02-06 02:37:00,30.3,29.0,29.91,NNE,12,0.0,0.0,95,0.00,,,0.00,Wunderground v.1.15,2013-02-06 07:37:00,
2013-02-06 02:42:00,30.3,29.0,29.91,NNE,12,0.0,0.0,95,0.00,,,0.00,Wunderground v.1.15,2013-02-06 07:42:00,
2013-02-06 02:47:00,30.4,29.1,29.91,North,11,0.0,1.0,95,0.00,,,0.00,Wunderground v.1.15,2013-02-06 07:47:00,
2013-02-06 02:53:00,30.4,29.1,29.91,North,11,0.0,0.0,95,0.00,,,0.00,Wunderground v.1.15,2013-02-06 07:53:00,
2013-02-06 02:58:00,30.4,29.1,29.91,North,11,0.0,0.0,95,0.00,,,0.00,Wunderground v.1.15,2013-02-06 07:58:00,
2013-02-06 03:03:00,30.4,29.1,29.91,North,11,0.0,0.0,95,0.00,,,0.00,Wunderground v.1.15,2013-02-06 08:03:00,
2013-02-06 03:09:00,30.4,29.1,29.90,North,11,0.0,0.0,95,0.00,,,0.00,Wunderground v.1.15,2013-02-06 08:09:00,
2013-02-06 03:14:00,30.4,29.1,29.90,North,11,0.0,0.0,95,0.00,,,0.00,Wunderground v.1.15,2013-02-06 08:14:00,
2013-02-06 03:20:00,30.4,29.1,29.90,North,11,0.0,0.0,95,0.00,,,0.00,Wunderground v.1.15,2013-02-06 08:20:00,
2013-02-06 03:25:00,30.4,29.1,29.90,North,355,0.0,0.0,95,0.00,,,0.00,Wunderground v.1.15,2013-02-06 08:25:00,
2013-02-06 03:31:00,30.4,29.1,29.90,North,360,0.0,0.0,95,0.00,,,0.00,Wunderground v.1.15,2013-02-06 08:31:00,
2013-02-06 03:36:00,30.4,29.1,29.90,North,360,0.0,0.0,95,0.00,,,0.00,Wunderground v.1.15,2013-02-06 08:36:00,
2013-02-06 03:41:00,30.4,29.1,29.90,North,360,0.0,0.0,95,0.00,,,0.00,Wunderground v.1.15,2013-02-06 08:41:00,
2013-02-06 03:47:00,30.4,29.1,29.91,North,360,0.0,0.0,95,0.00,,,0.00,Wunderground v.1.15,2013-02-06 08:47:00,
2013-02-06 03:52:00,30.4,29.1,29.91,North,360,0.0,0.0,95,0.00,,,0.00,Wunderground v.1.15,2013-02-06 08:52:00,
2013-02-06 03:58:00,30.4,29.1,29.90,North,360,0.0,1.0,95,0.00,,,0.00,Wunderground v.1.15,2013-02-06 08:58:00,
2013-02-06 04:04:00,30.5,29.2,29.91,North,355,0.0,0.0,95,0.00,,,0.00,Wunderground v.1.15,2013-02-06 09:04:00,
2013-02-06 04:10:00,30.5,29.2,29.91,North,355,0.0,0.0,95,0.00,,,0.00,Wunderground v.1.15,2013-02-06 09:10:00,
2013-02-06 04:16:00,30.5,29.2,29.91,NNW,336,0.0,1.0,95,0.00,,,0.00,Wunderground v.1.15,2013-02-06 09:16:00,
2013-02-06 04:21:00,30.5,29.2,29.91,NW,315,0.0,0.0,95,0.00,,,0.00,Wunderground v.1.15,2013-02-06 09:21:00,
2013-02-06 04:27:00,30.5,29.2,29.92,WNW,295,1.0,1.0,95,0.00,,,0.00,Wunderground v.1.15,2013-02-06 09:27:00,
2013-02-06 04:32:00,30.5,29.2,29.92,WNW,295,0.0,0.0,95,0.00,,,0.00,Wunderground v.1.15,2013-02-06 09:32:00,
2013-02-06 04:37:00,30.5,29.2,29.92,NW,307,0.0,1.0,95,0.00,,,0.00,Wunderground v.1.15,2013-02-06 09:37:00,
2013-02-06 04:43:00,30.5,29.2,29.92,NW,307,0.0,0.0,95,0.00,,,0.00,Wunderground v.1.15,2013-02-06 09:43:00,
2013-02-06 04:49:00,30.4,29.1,29.92,WNW,290,0.0,1.0,95,0.00,,,0.00,Wunderground v.1.15,2013-02-06 09:49:00,
2013-02-06 04:54:00,30.4,29.1,29.92,NW,309,0.0,0.0,95,0.00,,,0.00,Wunderground v.1.15,2013-02-06 09:54:00,
2013-02-06 04:59:00,30.3,29.0,29.93,NW,308,0.0,3.0,95,0.00,,,0.00,Wunderground v.1.15,2013-02-06 09:59:00,
2013-02-06 05:05:00,30.2,28.9,29.93,NW,326,0.0,0.0,95,0.00,,,0.00,Wunderground v.1.15,2013-02-06 10:05:00,
2013-02-06 05:10:00,30.2,28.9,29.93,NW,326,0.0,0.0,95,0.00,,,0.00,Wunderground v.1.15,2013-02-06 10:10:00,
2013-02-06 05:16:00,30.1,28.8,29.93,NW,309,0.0,2.0,95,0.00,,,0.00,Wunderground v.1.15,2013-02-06 10:16:00,
2013-02-06 05:21:00,30.0,28.7,29.93,WNW,300,1.0,2.0,95,0.00,,,0.00,Wunderground v.1.15,2013-02-06 10:21:00,
2013-02-06 05:26:00,29.9,28.6,29.93,NNE,33,1.0,2.0,95,0.00,,,0.00,Wunderground v.1.15,2013-02-06 10:26:00,
2013-02-06 05:32:00,29.9,28.6,29.93,NW,309,0.0,1.0,95,0.00,,,0.00,Wunderground v.1.15,2013-02-06 10:32:00,
2013-02-06 05:37:00,29.8,28.5,29.94,NW,304,1.0,2.0,95,0.00,,,0.00,Wunderground v.1.15,2013-02-06 10:37:00,
2013-02-06 05:43:00,29.7,28.4,29.93,WNW,301,0.0,2.0,95,0.00,,,0.00,Wunderground v.1.15,2013-02-06 10:43:00,
2013-02-06 05:49:00,29.7,28.4,29.93,NNW,337,0.0,2.0,95,0.00,,,0.00,Wunderground v.1.15,2013-02-06 10:49:00,
2013-02-06 05:55:00,29.6,28.3,29.93,NNW,337,0.0,2.0,95,0.00,,,0.00,Wunderground v.1.15,2013-02-06 10:55:00,
2013-02-06 06:00:00,29.6,28.3,29.94,NNW,337,0.0,0.0,95,0.00,,,0.00,Wunderground v.1.15,2013-02-06 11:00:00,
2013-02-06 06:05:00,29.5,28.2,29.94,NW,315,0.0,1.0,95,0.00,,,0.00,Wunderground v.1.15,2013-02-06 11:05:00,
2013-02-06 06:11:00,29.5,28.2,29.94,NW,315,0.0,0.0,95,0.00,,,0.00,Wunderground v.1.15,2013-02-06 11:11:00,
2013-02-06 06:16:00,29.4,28.1,29.94,NW,315,0.0,0.0,95,0.00,,,0.00,Wunderground v.1.15,2013-02-06 11:16:00,
2013-02-06 06:22:00,29.4,28.1,29.95,NW,315,0.0,0.0,95,0.00,,,0.00,Wunderground v.1.15,2013-02-06 11:22:00,
2013-02-06 06:27:00,29.4,28.1,29.95,NW,315,0.0,0.0,95,0.00,,,0.00,Wunderground v.1.15,2013-02-06 11:27:00,
2013-02-06 06:33:00,29.4,28.1,29.95,NW,315,0.0,0.0,95,0.00,,,0.00,Wunderground v.1.15,2013-02-06 11:33:00,
2013-02-06 06:39:00,29.4,28.1,29.95,NW,315,0.0,0.0,95,0.00,,,0.00,Wunderground v.1.15,2013-02-06 11:39:00,
2013-02-06 06:44:00,29.3,28.0,29.95,NW,315,0.0,0.0,95,0.00,,,0.00,Wunderground v.1.15,2013-02-06 11:44:00,
2013-02-06 06:50:00,29.3,28.0,29.95,NW,315,0.0,0.0,95,0.00,,,0.00,Wunderground v.1.15,2013-02-06 11:50:00,
2013-02-06 06:56:00,29.3,28.0,29.96,NW,315,0.0,0.0,95,0.00,,,0.00,Wunderground v.1.15,2013-02-06 11:56:00,
2013-02-06 07:02:00,29.2,27.9,29.96,NW,315,0.0,0.0,95,0.00,,,0.00,Wunderground v.1.15,2013-02-06 12:02:00,
2013-02-06 07:07:00,29.2,27.9,29.96,NW,315,0.0,0.0,95,0.00,,,0.00,Wunderground v.1.15,2013-02-06 12:07:00,
2013-02-06 07:13:00,29.2,27.9,29.96,NW,315,0.0,0.0,95,0.00,,,0.00,Wunderground v.1.15,2013-02-06 12:13:00,
2013-02-06 07:18:00,29.3,28.0,29.97,NW,315,0.0,0.0,95,0.00,,,0.00,Wunderground v.1.15,2013-02-06 12:18:00,
2013-02-06 07:24:00,29.3,28.0,29.97,NW,315,0.0,0.0,95,0.00,,,0.00,Wunderground v.1.15,2013-02-06 12:24:00,
2013-02-06 07:29:00,29.3,28.0,29.98,NW,315,0.0,0.0,95,0.00,,,0.00,Wunderground v.1.15,2013-02-06 12:29:00,
2013-02-06 07:35:00,29.4,28.1,29.97,NW,315,0.0,0.0,95,0.00,,,0.00,Wunderground v.1.15,2013-02-06 12:35:00,
2013-02-06 07:41:00,29.6,28.6,29.98,NW,315,0.0,0.0,96,0.00,,,0.00,Wunderground v.1.15,2013-02-06 12:41:00,
2013-02-06 07:46:00,29.7,28.7,29.98,NW,315,0.0,0.0,96,0.00,,,0.00,Wunderground v.1.15,2013-02-06 12:46:00,
2013-02-06 07:52:00,29.8,28.8,29.98,NW,315,0.0,0.0,96,0.00,,,0.00,Wunderground v.1.15,2013-02-06 12:52:00,
2013-02-06 07:58:00,29.9,28.9,29.99,NW,315,0.0,0.0,96,0.00,,,0.00,Wunderground v.1.15,2013-02-06 12:58:00,
2013-02-06 08:03:00,30.1,29.1,29.99,NW,315,0.0,0.0,96,0.00,,,0.00,Wunderground v.1.15,2013-02-06 13:03:00,
2013-02-06 08:09:00,30.2,29.2,29.99,NW,315,0.0,0.0,96,0.00,,,0.00,Wunderground v.1.15,2013-02-06 13:09:00,
2013-02-06 08:15:00,30.4,29.4,29.99,WSW,249,0.0,0.0,96,0.00,,,0.00,Wunderground v.1.15,2013-02-06 13:15:00,
2013-02-06 08:20:00,30.5,29.5,29.99,NW,309,0.0,0.0,96,0.00,,,0.00,Wunderground v.1.15,2013-02-06 13:20:00,
2013-02-06 08:26:00,30.8,29.8,29.99,NW,309,0.0,0.0,96,0.00,,,0.00,Wunderground v.1.15,2013-02-06 13:26:00,
2013-02-06 08:31:00,31.0,30.0,29.99,NW,309,0.0,0.0,96,0.00,,,0.00,Wunderground v.1.15,2013-02-06 13:31:00,
2013-02-06 08:36:00,31.1,30.1,29.99,WNW,299,0.0,1.0,96,0.00,,,0.00,Wunderground v.1.15,2013-02-06 13:36:00,
2013-02-06 08:41:00,31.2,29.9,30.00,WNW,299,0.0,0.0,95,0.00,,,0.00,Wunderground v.1.15,2013-02-06 13:41:00,
2013-02-06 08:47:00,31.2,29.9,30.00,WNW,299,0.0,0.0,95,0.00,,,0.00,Wunderground v.1.15,2013-02-06 13:47:00,
2013-02-06 08:53:00,31.3,30.0,30.00,WNW,299,0.0,0.0,95,0.00,,,0.00,Wunderground v.1.15,2013-02-06 13:53:00,
2013-02-06 08:59:00,31.3,30.0,30.00,WNW,299,0.0,0.0,95,0.00,,,0.00,Wunderground v.1.15,2013-02-06 13:59:00,
2013-02-06 09:05:00,31.4,30.1,30.00,WNW,299,0.0,0.0,95,0.00,,,0.00,Wunderground v.1.15,2013-02-06 14:05:00,
2013-02-06 09:11:00,31.5,30.2,30.00,WNW,299,0.0,0.0,95,0.00,,,0.00,Wunderground v.1.15,2013-02-06 14:11:00,
2013-02-06 09:17:00,31.5,30.0,30.00,WNW,299,0.0,1.0,94,0.00,,,0.00,Wunderground v.1.15,2013-02-06 14:17:00,
2013-02-06 09:22:00,31.6,30.1,30.00,WNW,299,0.0,0.0,94,0.00,,,0.00,Wunderground v.1.15,2013-02-06 14:22:00,
2013-02-06 09:28:00,31.8,30.5,30.00,WNW,302,0.0,0.0,95,0.00,,,0.00,Wunderground v.1.15,2013-02-06 14:28:00,
2013-02-06 09:33:00,31.9,30.4,30.01,WNW,302,0.0,0.0,94,0.00,,,0.00,Wunderground v.1.15,2013-02-06 14:33:00,
2013-02-06 09:39:00,31.9,30.4,30.01,WNW,302,0.0,0.0,94,0.00,,,0.00,Wunderground v.1.15,2013-02-06 14:39:00,
2013-02-06 09:45:00,31.9,30.4,30.01,West,272,0.0,2.0,94,0.00,,,0.00,Wunderground v.1.15,2013-02-06 14:45:00,
2013-02-06 09:51:00,31.8,30.3,30.01,West,273,1.0,1.0,94,0.00,,,0.00,Wunderground v.1.15,2013-02-06 14:51:00,
2013-02-06 09:56:00,31.9,30.4,30.01,West,259,1.0,1.0,94,0.00,,,0.00,Wunderground v.1.15,2013-02-06 14:56:00,
2013-02-06 10:01:00,31.8,30.0,30.01,West,259,0.0,0.0,93,0.00,,,0.00,Wunderground v.1.15,2013-02-06 15:01:00,
2013-02-06 10:07:00,31.8,30.3,30.01,West,259,0.0,1.0,94,0.00,,,0.00,Wunderground v.1.15,2013-02-06 15:07:00,
2013-02-06 10:12:00,31.9,30.4,30.01,West,259,0.0,1.0,94,0.00,,,0.00,Wunderground v.1.15,2013-02-06 15:12:00,
2013-02-06 10:18:00,32.1,30.6,30.02,West,259,0.0,2.0,94,0.00,,,0.00,Wunderground v.1.15,2013-02-06 15:18:00,
2013-02-06 10:23:00,32.1,30.3,30.02,SW,235,1.0,3.0,93,0.00,,,0.00,Wunderground v.1.15,2013-02-06 15:23:00,
2013-02-06 10:28:00,32.0,30.2,30.02,SW,235,1.0,3.0,93,0.00,,,0.00,Wunderground v.1.15,2013-02-06 15:28:00,
2013-02-06 10:33:00,32.1,30.6,30.02,West,277,1.0,2.0,94,0.00,,,0.00,Wunderground v.1.15,2013-02-06 15:33:00,
2013-02-06 10:39:00,32.1,30.6,30.02,SSW,213,1.0,4.0,94,0.00,,,0.00,Wunderground v.1.15,2013-02-06 15:39:00,
2013-02-06 10:45:00,32.1,30.6,30.01,West,265,1.0,3.0,94,0.00,,,0.00,Wunderground v.1.15,2013-02-06 15:45:00,
2013-02-06 10:50:00,32.1,30.6,30.02,West,265,1.0,2.0,94,0.00,,,0.00,Wunderground v.1.15,2013-02-06 15:50:00,
2013-02-06 10:56:00,32.4,30.9,30.01,WSW,254,1.0,2.0,94,0.00,,,0.00,Wunderground v.1.15,2013-02-06 15:56:00,
2013-02-06 11:01:00,32.8,31.3,30.01,WSW,246,1.0,3.0,94,0.00,,,0.00,Wunderground v.1.15,2013-02-06 16:01:00,
2013-02-06 11:06:00,33.1,31.3,30.01,West,273,2.0,6.0,93,0.00,,,0.00,Wunderground v.1.15,2013-02-06 16:06:00,
2013-02-06 11:12:00,33.4,31.6,30.00,West,261,1.0,2.0,93,0.00,,,0.00,Wunderground v.1.15,2013-02-06 16:12:00,
2013-02-06 11:17:00,33.9,32.4,30.00,WNW,286,0.0,2.0,94,0.00,,,0.00,Wunderground v.1.15,2013-02-06 16:17:00,
2013-02-06 11:22:00,34.3,32.2,30.00,WSW,248,0.0,2.0,92,0.00,,,0.00,Wunderground v.1.15,2013-02-06 16:22:00,
2013-02-06 11:28:00,34.5,32.1,30.01,WNW,289,1.0,2.0,91,0.00,,,0.01,Wunderground v.1.15,2013-02-06 16:28:00,
2013-02-06 11:33:00,34.7,32.1,30.01,West,268,1.0,2.0,90,0.00,,,0.01,Wunderground v.1.15,2013-02-06 16:33:00,
2013-02-06 11:39:00,35.3,32.9,30.01,WSW,249,1.0,3.0,91,0.00,,,0.01,Wunderground v.1.15,2013-02-06 16:39:00,
2013-02-06 11:44:00,35.9,33.0,30.01,West,259,3.0,4.0,89,0.00,,,0.02,Wunderground v.1.15,2013-02-06 16:44:00,
2013-02-06 11:49:00,36.2,33.0,30.01,SSW,209,3.0,5.0,88,0.00,,,0.02,Wunderground v.1.15,2013-02-06 16:49:00,
2013-02-06 11:55:00,36.5,33.3,30.01,WSW,240,2.0,3.0,88,0.05,,,0.03,Wunderground v.1.15,2013-02-06 16:55:00,
2013-02-06 12:00:00,36.9,33.1,30.01,SW,218,3.0,3.0,86,0.05,,,0.03,Wunderground v.1.15,2013-02-06 17:00:00,
2013-02-06 12:05:00,37.3,33.5,30.01,WSW,247,3.0,9.0,86,0.05,,,0.03,Wunderground v.1.15,2013-02-06 17:05:00,
2013-02-06 12:11:00,38.0,33.9,30.01,West,276,3.0,3.0,85,0.04,,,0.04,Wunderground v.1.15,2013-02-06 17:11:00,
2013-02-06 12:16:00,38.3,33.9,30.01,WNW,284,2.0,5.0,84,0.04,,,0.04,Wunderground v.1.15,2013-02-06 17:16:00,
2013-02-06 12:22:00,38.7,34.0,30.00,West,277,2.0,2.0,83,0.04,,,0.04,Wunderground v.1.15,2013-02-06 17:22:00,
2013-02-06 12:27:00,39.2,33.5,30.00,WSW,243,2.0,5.0,80,0.00,,,0.04,Wunderground v.1.15,2013-02-06 17:27:00,
2013-02-06 12:33:00,39.2,32.9,30.00,SW,231,2.0,5.0,78,0.00,,,0.05,Wunderground v.1.15,2013-02-06 17:33:00,
2013-02-06 12:39:00,39.5,32.9,30.00,WSW,248,2.0,7.0,77,0.00,,,0.05,Wunderground v.1.15,2013-02-06 17:39:00,
2013-02-06 12:44:00,39.8,32.8,29.99,South,179,2.0,2.0,76,0.00,,,0.05,Wunderground v.1.15,2013-02-06 17:44:00,
2013-02-06 12:50:00,40.4,32.8,29.99,WSW,238,2.0,4.0,74,0.00,,,0.05,Wunderground v.1.15,2013-02-06 17:50:00,
2013-02-06 12:55:00,40.3,32.0,29.99,WSW,250,3.0,5.0,72,0.00,,,0.05,Wunderground v.1.15,2013-02-06 17:55:00,
2013-02-06 13:01:00,40.4,32.4,29.99,West,274,3.0,6.0,73,0.00,,,0.05,Wunderground v.1.15,2013-02-06 18:01:00,
2013-02-06 13:06:00,40.5,32.5,29.99,West,259,2.0,6.0,73,0.00,,,0.05,Wunderground v.1.15,2013-02-06 18:06:00,
2013-02-06 13:11:00,40.7,31.7,29.99,SW,217,2.0,4.0,70,0.00,,,0.05,Wunderground v.1.15,2013-02-06 18:11:00,
2013-02-06 13:17:00,40.9,32.2,29.99,WNW,298,3.0,7.0,71,0.00,,,0.05,Wunderground v.1.15,2013-02-06 18:17:00,
2013-02-06 13:22:00,41.3,31.5,29.99,West,269,3.0,5.0,68,0.00,,,0.05,Wunderground v.1.15,2013-02-06 18:22:00,
2013-02-06 13:28:00,41.4,30.5,29.99,SSW,213,3.0,7.0,65,0.00,,,0.05,Wunderground v.1.15,2013-02-06 18:28:00,
2013-02-06 13:33:00,41.3,30.4,29.99,SW,217,3.0,7.0,65,0.00,,,0.05,Wunderground v.1.15,2013-02-06 18:33:00,
2013-02-06 13:39:00,41.2,30.7,29.99,SW,229,3.0,7.0,66,0.00,,,0.05,Wunderground v.1.15,2013-02-06 18:39:00,
2013-02-06 13:45:00,41.6,30.3,29.99,WSW,255,2.0,4.0,64,0.00,,,0.05,Wunderground v.1.15,2013-02-06 18:45:00,
2013-02-06 13:50:00,41.8,30.5,30.00,WSW,244,3.0,3.0,64,0.00,,,0.05,Wunderground v.1.15,2013-02-06 18:50:00,
2013-02-06 13:55:00,42.0,30.3,30.00,WSW,238,3.0,5.0,63,0.00,,,0.05,Wunderground v.1.15,2013-02-06 18:55:00,
2013-02-06 14:01:00,41.7,31.2,30.00,SW,222,3.0,4.0,66,0.00,,,0.05,Wunderground v.1.15,2013-02-06 19:01:00,
2013-02-06 14:06:00,41.7,31.9,30.00,West,276,4.0,5.0,68,0.00,,,0.05,Wunderground v.1.15,2013-02-06 19:06:00,
2013-02-06 14:12:00,41.6,32.9,30.00,WSW,237,4.0,4.0,71,0.00,,,0.05,Wunderground v.1.15,2013-02-06 19:12:00,
2013-02-06 14:17:00,40.7,32.4,30.00,WSW,252,3.0,8.0,72,0.00,,,0.05,Wunderground v.1.15,2013-02-06 19:17:00,
2013-02-06 14:22:00,39.8,31.5,30.01,SSW,203,3.0,9.0,72,0.00,,,0.05,Wunderground v.1.15,2013-02-06 19:22:00,
2013-02-06 14:28:00,39.1,31.8,30.01,SSW,213,3.0,9.0,75,0.00,,,0.05,Wunderground v.1.15,2013-02-06 19:28:00,
2013-02-06 14:33:00,38.9,32.0,30.01,WSW,250,3.0,3.0,76,0.00,,,0.05,Wunderground v.1.15,2013-02-06 19:33:00,
2013-02-06 14:39:00,38.6,31.4,30.01,SW,221,3.0,6.0,75,0.00,,,0.05,Wunderground v.1.15,2013-02-06 19:39:00,
2013-02-06 14:45:00,38.7,29.0,30.01,West,262,3.0,7.0,68,0.00,,,0.05,Wunderground v.1.15,2013-02-06 19:45:00,
2013-02-06 14:50:00,39.2,28.8,30.01,West,259,3.0,8.0,66,0.00,,,0.05,Wunderground v.1.15,2013-02-06 19:50:00,
2013-02-06 14:56:00,39.7,28.9,30.01,West,276,3.0,8.0,65,0.00,,,0.05,Wunderground v.1.15,2013-02-06 19:56:00,
2013-02-06 15:02:00,40.0,28.4,30.02,West,272,3.0,5.0,63,0.00,,,0.05,Wunderground v.1.15,2013-02-06 20:02:00,
2013-02-06 15:07:00,39.9,27.5,30.02,WNW,282,3.0,5.0,61,0.00,,,0.05,Wunderground v.1.15,2013-02-06 20:07:00,
2013-02-06 15:12:00,39.9,27.5,30.02,West,273,3.0,5.0,61,0.00,,,0.05,Wunderground v.1.15,2013-02-06 20:12:00,
2013-02-06 15:18:00,40.0,26.8,30.03,West,277,3.0,5.0,59,0.00,,,0.05,Wunderground v.1.15,2013-02-06 20:18:00,
2013-02-06 15:23:00,39.7,26.5,30.03,West,261,3.0,7.0,59,0.00,,,0.05,Wunderground v.1.15,2013-02-06 20:23:00,
2013-02-06 15:29:00,39.2,26.9,30.03,NW,326,3.0,7.0,61,0.00,,,0.05,Wunderground v.1.15,2013-02-06 20:29:00,
2013-02-06 15:34:00,38.7,26.0,30.04,West,269,2.0,7.0,60,0.00,,,0.05,Wunderground v.1.15,2013-02-06 20:34:00,
2013-02-06 15:39:00,38.5,26.2,30.04,NW,325,3.0,7.0,61,0.00,,,0.05,Wunderground v.1.15,2013-02-06 20:39:00,
2013-02-06 15:45:00,38.4,26.5,30.04,West,281,3.0,5.0,62,0.00,,,0.05,Wunderground v.1.15,2013-02-06 20:45:00,
2013-02-06 15:50:00,38.2,24.7,30.04,West,267,3.0,3.0,58,0.00,,,0.05,Wunderground v.1.15,2013-02-06 20:50:00,
2013-02-06 15:55:00,38.0,24.9,30.04,West,276,4.0,6.0,59,0.00,,,0.05,Wunderground v.1.15,2013-02-06 20:55:00,
2013-02-06 16:00:00,37.9,25.2,30.05,WSW,254,3.0,8.0,60,0.00,,,0.05,Wunderground v.1.15,2013-02-06 21:00:00,
2013-02-06 16:06:00,37.7,25.5,30.05,WSW,252,3.0,8.0,61,0.00,,,0.05,Wunderground v.1.15,2013-02-06 21:06:00,
2013-02-06 16:11:00,37.5,25.3,30.05,West,273,2.0,3.0,61,0.00,,,0.05,Wunderground v.1.15,2013-02-06 21:11:00,
2013-02-06 16:17:00,37.1,25.3,30.05,West,279,2.0,7.0,62,0.00,,,0.05,Wunderground v.1.15,2013-02-06 21:17:00,
2013-02-06 16:22:00,36.8,25.4,30.05,WNW,292,2.0,5.0,63,0.00,,,0.05,Wunderground v.1.15,2013-02-06 21:22:00,
2013-02-06 16:27:00,36.6,25.6,30.05,West,261,2.0,5.0,64,0.00,,,0.05,Wunderground v.1.15,2013-02-06 21:27:00,
2013-02-06 16:33:00,36.4,24.6,30.06,NW,311,3.0,4.0,62,0.00,,,0.05,Wunderground v.1.15,2013-02-06 21:33:00,
2013-02-06 16:39:00,36.1,24.3,30.06,West,279,2.0,5.0,62,0.00,,,0.05,Wunderground v.1.15,2013-02-06 21:39:00,
2013-02-06 16:45:00,35.9,24.5,30.06,WNW,300,2.0,5.0,63,0.00,,,0.05,Wunderground v.1.15,2013-02-06 21:45:00,
2013-02-06 16:50:00,35.7,24.7,30.06,West,279,2.0,2.0,64,0.00,,,0.05,Wunderground v.1.15,2013-02-06 21:50:00,
2013-02-06 16:55:00,35.5,24.5,30.07,West,278,2.0,4.0,64,0.00,,,0.05,Wunderground v.1.15,2013-02-06 21:55:00,
2013-02-06 17:01:00,35.2,23.9,30.07,WNW,291,2.0,3.0,63,0.00,,,0.05,Wunderground v.1.15,2013-02-06 22:01:00,
2013-02-06 17:07:00,34.9,24.3,30.07,WSW,254,1.0,3.0,65,0.00,,,0.05,Wunderground v.1.15,2013-02-06 22:07:00,
2013-02-06 17:13:00,34.6,24.4,30.07,West,277,2.0,7.0,66,0.00,,,0.05,Wunderground v.1.15,2013-02-06 22:13:00,
2013-02-06 17:18:00,34.4,24.6,30.08,WNW,291,2.0,7.0,67,0.00,,,0.05,Wunderground v.1.15,2013-02-06 22:18:00,
2013-02-06 17:24:00,34.3,24.1,30.08,West,276,2.0,5.0,66,0.00,,,0.05,Wunderground v.1.15,2013-02-06 22:24:00,
2013-02-06 17:29:00,34.3,24.1,30.08,WNW,284,2.0,5.0,66,0.00,,,0.05,Wunderground v.1.15,2013-02-06 22:29:00,
2013-02-06 17:34:00,34.1,23.9,30.08,West,265,3.0,3.0,66,0.00,,,0.05,Wunderground v.1.15,2013-02-06 22:34:00,
2013-02-06 17:40:00,34.1,23.9,30.09,WNW,286,2.0,2.0,66,0.00,,,0.05,Wunderground v.1.15,2013-02-06 22:40:00,
2013-02-06 17:45:00,34.0,24.2,30.10,West,281,2.0,4.0,67,0.00,,,0.05,Wunderground v.1.15,2013-02-06 22:45:00,
2013-02-06 17:51:00,33.9,24.1,30.10,West,279,2.0,2.0,67,0.00,,,0.05,Wunderground v.1.15,2013-02-06 22:51:00,
2013-02-06 17:56:00,33.8,24.0,30.10,West,265,2.0,4.0,67,0.00,,,0.05,Wunderground v.1.15,2013-02-06 22:56:00,
2013-02-06 18:02:00,33.7,23.5,30.10,West,270,2.0,3.0,66,0.00,,,0.05,Wunderground v.1.15,2013-02-06 23:02:00,
2013-02-06 18:07:00,33.6,23.1,30.11,WNW,289,2.0,3.0,65,0.00,,,0.05,Wunderground v.1.15,2013-02-06 23:07:00,
2013-02-06 18:12:00,33.5,22.6,30.11,WNW,288,2.0,4.0,64,0.00,,,0.05,Wunderground v.1.15,2013-02-06 23:12:00,
2013-02-06 18:18:00,33.5,22.6,30.12,WNW,294,2.0,4.0,64,0.00,,,0.05,Wunderground v.1.15,2013-02-06 23:18:00,
2013-02-06 18:23:00,33.4,22.5,30.12,WNW,294,2.0,3.0,64,0.00,,,0.05,Wunderground v.1.15,2013-02-06 23:23:00,
2013-02-06 18:29:00,33.3,22.8,30.13,WNW,284,1.0,3.0,65,0.00,,,0.05,Wunderground v.1.15,2013-02-06 23:29:00,
2013-02-06 18:34:00,33.2,22.7,30.13,WNW,289,1.0,1.0,65,0.00,,,0.05,Wunderground v.1.15,2013-02-06 23:34:00,
2013-02-06 18:39:00,33.0,22.9,30.13,WNW,287,1.0,2.0,66,0.00,,,0.05,Wunderground v.1.15,2013-02-06 23:39:00,
2013-02-06 18:45:00,32.8,22.7,30.14,West,277,1.0,5.0,66,0.00,,,0.05,Wunderground v.1.15,2013-02-06 23:45:00,
2013-02-06 18:50:00,32.6,22.8,30.14,WNW,285,1.0,1.0,67,0.00,,,0.05,Wunderground v.1.15,2013-02-06 23:50:00,
2013-02-06 18:56:00,32.5,22.8,30.14,West,279,1.0,2.0,67,0.00,,,0.05,Wunderground v.1.15,2013-02-06 23:56:00,
2013-02-06 19:01:00,32.3,22.9,30.14,West,271,1.0,3.0,68,0.00,,,0.05,Wunderground v.1.15,2013-02-07 00:01:00,
2013-02-06 19:06:00,32.1,22.7,30.14,West,267,1.0,3.0,68,0.00,,,0.05,Wunderground v.1.15,2013-02-07 00:06:00,
2013-02-06 19:12:00,32.0,22.6,30.15,WSW,254,1.0,1.0,68,0.00,,,0.05,Wunderground v.1.15,2013-02-07 00:12:00,
2013-02-06 19:17:00,31.8,22.4,30.15,West,261,1.0,2.0,68,0.00,,,0.05,Wunderground v.1.15,2013-02-07 00:17:00,
2013-02-06 19:23:00,31.7,22.3,30.16,WSW,256,1.0,2.0,68,0.00,,,0.05,Wunderground v.1.15,2013-02-07 00:23:00,
2013-02-06 19:28:00,31.7,22.3,30.15,West,280,1.0,2.0,68,0.00,,,0.05,Wunderground v.1.15,2013-02-07 00:28:00,
2013-02-06 19:33:00,31.7,21.6,30.15,WNW,286,2.0,7.0,66,0.00,,,0.05,Wunderground v.1.15,2013-02-07 00:33:00,
2013-02-06 19:39:00,31.9,21.1,30.16,WNW,292,3.0,8.0,64,0.00,,,0.05,Wunderground v.1.15,2013-02-07 00:39:00,
2013-02-06 19:44:00,32.0,20.8,30.16,West,280,3.0,3.0,63,0.00,,,0.05,Wunderground v.1.15,2013-02-07 00:44:00,
2013-02-06 19:49:00,32.0,20.4,30.16,West,277,2.0,5.0,62,0.00,,,0.05,Wunderground v.1.15,2013-02-07 00:49:00,
2013-02-06 19:55:00,32.0,20.4,30.16,NW,323,2.0,3.0,62,0.00,,,0.05,Wunderground v.1.15,2013-02-07 00:55:00,
2013-02-06 20:01:00,31.9,20.3,30.17,West,280,2.0,2.0,62,0.00,,,0.05,Wunderground v.1.15,2013-02-07 01:01:00,
2013-02-06 20:06:00,31.9,20.0,30.17,NW,309,3.0,6.0,61,0.00,,,0.05,Wunderground v.1.15,2013-02-07 01:06:00,
2013-02-06 20:11:00,31.9,20.0,30.18,West,259,3.0,3.0,61,0.00,,,0.05,Wunderground v.1.15,2013-02-07 01:11:00,
2013-02-06 20:17:00,31.8,19.5,30.18,NW,306,2.0,4.0,60,0.00,,,0.05,Wunderground v.1.15,2013-02-07 01:17:00,
2013-02-06 20:22:00,31.7,19.0,30.18,West,264,3.0,10.0,59,0.00,,,0.05,Wunderground v.1.15,2013-02-07 01:22:00,
2013-02-06 20:28:00,31.7,19.4,30.19,NNW,330,3.0,10.0,60,0.00,,,0.05,Wunderground v.1.15,2013-02-07 01:28:00,
2013-02-06 20:33:00,31.5,18.4,30.19,NNW,346,3.0,3.0,58,0.00,,,0.05,Wunderground v.1.15,2013-02-07 01:33:00,
2013-02-06 20:39:00,31.5,17.6,30.19,West,262,3.0,7.0,56,0.00,,,0.05,Wunderground v.1.15,2013-02-07 01:39:00,
2013-02-06 20:45:00,31.4,17.5,30.20,NW,317,3.0,8.0,56,0.00,,,0.05,Wunderground v.1.15,2013-02-07 01:45:00,
2013-02-06 20:50:00,31.3,17.0,30.21,West,264,3.0,3.0,55,0.00,,,0.05,Wunderground v.1.15,2013-02-07 01:50:00,
2013-02-06 20:56:00,31.2,17.3,30.21,West,281,3.0,5.0,56,0.00,,,0.05,Wunderground v.1.15,2013-02-07 01:56:00,
2013-02-06 21:01:00,31.1,16.8,30.20,WNW,298,3.0,5.0,55,0.00,,,0.05,Wunderground v.1.15,2013-02-07 02:01:00,
2013-02-06 21:06:00,31.0,16.3,30.21,NNW,329,3.0,7.0,54,0.00,,,0.05,Wunderground v.1.15,2013-02-07 02:06:00,
2013-02-06 21:12:00,31.0,16.3,30.21,West,259,4.0,5.0,54,0.00,,,0.05,Wunderground v.1.15,2013-02-07 02:12:00,
2013-02-06 21:18:00,30.8,16.1,30.21,West,263,3.0,5.0,54,0.00,,,0.05,Wunderground v.1.15,2013-02-07 02:18:00,
2013-02-06 21:23:00,30.7,16.0,30.21,West,277,3.0,5.0,54,0.00,,,0.05,Wunderground v.1.15,2013-02-07 02:23:00,
2013-02-06 21:28:00,30.7,16.0,30.22,WNW,284,3.0,5.0,54,0.00,,,0.05,Wunderground v.1.15,2013-02-07 02:28:00,
2013-02-06 21:33:00,30.6,15.9,30.22,West,276,3.0,5.0,54,0.00,,,0.05,Wunderground v.1.15,2013-02-07 02:33:00,
2013-02-06 21:39:00,30.5,15.8,30.22,WNW,300,3.0,5.0,54,0.00,,,0.05,Wunderground v.1.15,2013-02-07 02:39:00,
2013-02-06 21:44:00,30.5,15.4,30.23,West,273,3.0,6.0,53,0.00,,,0.05,Wunderground v.1.15,2013-02-07 02:44:00,
2013-02-06 21:50:00,30.3,15.6,30.23,WSW,258,3.0,6.0,54,0.00,,,0.05,Wunderground v.1.15,2013-02-07 02:50:00,
2013-02-06 21:55:00,30.3,15.2,30.24,West,271,4.0,6.0,53,0.00,,,0.05,Wunderground v.1.15,2013-02-07 02:55:00,
2013-02-06 22:01:00,30.2,15.5,30.24,NW,313,3.0,5.0,54,0.00,,,0.05,Wunderground v.1.15,2013-02-07 03:01:00,
2013-02-06 22:06:00,30.0,15.3,30.24,West,280,3.0,6.0,54,0.00,,,0.05,Wunderground v.1.15,2013-02-07 03:06:00,
2013-02-06 22:12:00,29.9,15.3,30.24,West,272,2.0,2.0,54,0.00,,,0.05,Wunderground v.1.15,2013-02-07 03:12:00,
2013-02-06 22:17:00,29.7,15.1,30.25,WNW,302,2.0,5.0,54,0.00,,,0.05,Wunderground v.1.15,2013-02-07 03:17:00,
2013-02-06 22:22:00,29.6,14.5,30.25,West,278,3.0,7.0,53,0.00,,,0.05,Wunderground v.1.15,2013-02-07 03:22:00,
2013-02-06 22:28:00,29.6,14.5,30.26,NW,325,3.0,7.0,53,0.00,,,0.05,Wunderground v.1.15,2013-02-07 03:28:00,
2013-02-06 22:33:00,29.5,14.5,30.26,WNW,283,3.0,4.0,53,0.00,,,0.05,Wunderground v.1.15,2013-02-07 03:33:00,
2013-02-06 22:39:00,29.4,14.4,30.26,WNW,285,2.0,4.0,53,0.00,,,0.05,Wunderground v.1.15,2013-02-07 03:39:00,
2013-02-06 22:44:00,29.3,13.8,30.26,West,263,3.0,7.0,52,0.00,,,0.05,Wunderground v.1.15,2013-02-07 03:44:00,
2013-02-06 22:49:00,29.2,13.7,30.26,NW,313,3.0,11.0,52,0.00,,,0.05,Wunderground v.1.15,2013-02-07 03:49:00,
2013-02-06 22:55:00,29.2,13.3,30.26,WNW,286,3.0,3.0,51,0.00,,,0.05,Wunderground v.1.15,2013-02-07 03:55:00,
2013-02-06 23:01:00,29.0,13.6,30.26,WSW,250,2.0,2.0,52,0.00,,,0.05,Wunderground v.1.15,2013-02-07 04:01:00,
2013-02-06 23:06:00,28.9,13.5,30.26,West,270,2.0,6.0,52,0.00,,,0.05,Wunderground v.1.15,2013-02-07 04:06:00,
2013-02-06 23:12:00,28.8,14.2,30.26,NW,309,3.0,6.0,54,0.00,,,0.05,Wunderground v.1.15,2013-02-07 04:12:00,
2013-02-06 23:17:00,28.8,14.2,30.27,West,278,3.0,6.0,54,0.00,,,0.05,Wunderground v.1.15,2013-02-07 04:17:00,
2013-02-06 23:23:00,28.7,13.3,30.27,West,265,3.0,5.0,52,0.00,,,0.05,Wunderground v.1.15,2013-02-07 04:23:00,
2013-02-06 23:28:00,28.7,13.3,30.27,WNW,295,3.0,5.0,52,0.00,,,0.05,Wunderground v.1.15,2013-02-07 04:28:00,
2013-02-06 23:33:00,28.7,13.3,30.27,West,279,4.0,5.0,52,0.00,,,0.05,Wunderground v.1.15,2013-02-07 04:33:00,
2013-02-06 23:39:00,28.7,13.7,30.27,West,269,3.0,5.0,53,0.00,,,0.05,Wunderground v.1.15,2013-02-07 04:39:00,
2013-02-06 23:44:00,28.5,13.5,30.27,West,278,2.0,4.0,53,0.00,,,0.05,Wunderground v.1.15,2013-02-07 04:44:00,
2013-02-06 23:50:00,28.4,13.0,30.28,West,260,2.0,2.0,52,0.00,,,0.05,Wunderground v.1.15,2013-02-07 04:50:00,
2013-02-06 23:55:00,28.3,12.5,30.28,NNW,329,3.0,7.0,51,0.00,,,0.05,Wunderground v.1.15,2013-02-07 04:55:00,